Location: ?ern� Novina
(50.6762°N, 14.8696°E)
Time: 12:49:02
(UTC+00:00)

ERS-2 - Pass Details

Date: 03 March 2021
Orbit: 492 x 496 km, 98.6° (Epoch: 16 April)

Event Time Altitude Azimuth Distance (km) Brightness Sun altitude
Rises 18:21:27 0° 11° (N) 2,596 5.8 -16.0°
Reaches altitude 10° 18:23:34 10° 7° (N) 1,709 4.9 -16.3°
Maximum altitude 18:27:09 55° 290° (WNW) 604 2.8 -16.8°
Drops below altitude 10° 18:30:44 10° 212° (SSW) 1,696 5.1 -17.4°
Sets 18:32:49 0° 208° (SSW) 2,574 6.0 -17.7°
